GFSNE_700_temp_198.txt.gz
Temp
-2 -2 -1 -1 0 1 0 2 1 1 1 1 -1 -1 -4 -4 -3 -3 -3 -3 -3 -2 -3 -3 -3 -3 -2 -2 -2 -1 -1 -1 -2 -2 -2 -2 -1 -1
-1 -2 -2 -1 -0 0 0 1 2 1 -1 -1 -2 -3 -4 -5 -4 -5 -4 -7 -4 -4 -5 -4 -4 -3 -3 -3 -2 -2 -2 -2 -3 -2 -2 -2 -2 -1
-3 -4 -1 -2 -2 -0 -0 0 1 -0 -1 -3 -4 -5 -5 -5 -4 -4 -4 -6 -6 -6 -4 -4 -4 -4 -4 -4 -3 -3 -3 -3 -3 -3 -3 -2 -2 -2
-4 -3 -3 -3 -3 -2 -1 -2 0 -3 -3 -4 -5 -5 -6 -5 -5 -6 -7 -6 -7 -5 -5 -5 -5 -5 -5 -5 -4 -4 -4 -4 -3 -3 -3 -3 -3 -3
-4 -4 -2 -2 -2 -2 -2 -2 -2 -3 -3 -6 -6 -6 -5 -5 -5 -7 -7 -6 -6 -5 -5 -5 -5 -6 -6 -5 -5 -5 -5 -4 -4 -4 -4 -3 -3 -3
-4 -3 -3 -3 -3 -3 -2 -2 -2 -3 -6 -6 -7 -6 -6 -6 -5 -7 -7 -8 -7 -7 -6 -6 -6 -6 -6 -6 -6 -5 -5 -5 -5 -4 -4 -4 -4 -4
-3 -3 -3 -2 -3 -3 -3 -3 -3 -5 -5 -6 -6 -6 -6 -6 -7 -7 -7 -8 -6 -6 -7 -6 -7 -7 -7 -7 -6 -6 -6 -5 -5 -5 -5 -5 -5 -5
-4 -3 -3 -4 -4 -4 -4 -3 -3 -4 -6 -6 -6 -6 -6 -7 -7 -8 -8 -7 -7 -6 -6 -6 -7 -7 -7 -7 -7 -7 -6 -6 -6 -6 -6 -6 -6 -6
-5 -6 -5 -5 -5 -4 -4 -5 -6 -6 -6 -6 -6 -6 -7 -7 -8 -8 -7 -6 -7 -7 -7 -7 -8 -8 -8 -8 -7 -7 -7 -6 -6 -6 -6 -7 -6 -7
-6 -6 -6 -5 -5 -5 -5 -6 -6 -6 -6 -7 -7 -7 -8 -9 -8 -8 -7 -7 -8 -7 -7 -7 -8 -8 -8 -8 -8 -7 -7 -7 -7 -7 -7 -7 -7 -7
-7 -7 -7 -6 -6 -6 -6 -6 -6 -7 -7 -8 -7 -8 -9 -9 -8 -8 -7 -8 -7 -7 -8 -8 -8 -8 -8 -8 -8 -8 -8 -8 -8 -8 -8 -8 -8 -8
-7 -7 -8 -8 -7 -7 -7 -7 -7 -7 -7 -8 -8 -9 -9 -9 -7 -7 -8 -7 -7 -8 -8 -8 -9 -9 -8 -9 -9 -9 -9 -9 -9 -9 -9 -9 -9 -9
-8 -8 -8 -8 -8 -7 -7 -7 -7 -7 -7 -8 -8 -9 -9 -7 -7 -7 -8 -8 -8 -9 -9 -9 -9 -9 -9 -9 -9 -9 -9 -9 -9 -9 -9 -9 -9 -10
-8 -8 -8 -8 -8 -8 -8 -8 -8 -8 -8 -8 -9 -9 -8 -7 -7 -8 -8 -8 -9 -9 -9 -9 -9 -9 -10 -9 -10 -10 -10 -10 -10 -10 -10 -9 -10 -11
-9 -9 -9 -9 -9 -8 -8 -8 -8 -8 -8 -9 -8 -8 -8 -8 -8 -8 -9 -9 -9 -10 -10 -10 -10 -10 -10 -10 -10 -10 -10 -10 -11 -10 -10 -10 -11 -11
-9 -9 -9 -9 -8 -8 -8 -8 -8 -8 -10 -9 -8 -8 -8 -9 -9 -9 -9 -10 -10 -10 -10 -10 -10 -10 -10 -11 -11 -11 -11 -11 -11 -11 -11 -11 -11 -11
-8 -8 -7 -7 -8 -8 -8 -8 -10 -9 -8 -8 -8 -9 -9 -9 -9 -10 -10 -10 -10 -10 -11 -11 -11 -11 -11 -11 -11 -12 -12 -12 -12 -12 -12 -12 -12 -12
-8 -8 -8 -8 -8 -9 -11 -10 -9 -9 -9 -9 -9 -9 -9 -10 -10 -10 -11 -11 -11 -11 -11 -11 -11 -12 -12 -12 -12 -13 -13 -13 -13 -13 -13 -13 -13 -13
-9 -8 -8 -8 -9 -9 -10 -10 -11 -11 -10 -10 -10 -10 -10 -11 -11 -11 -12 -12 -12 -12 -12 -12 -13 -13 -13 -13 -14 -14 -14 -14 -13 -13 -14 -14 -14 -14
-8 -8 -9 -9 -9 -9 -9 -9 -9 -9 -10 -11 -12 -12 -12 -11 -12 -12 -12 -13 -14 -13 -13 -13 -13 -13 -13 -14 -14 -15 -15 -15 -15 -15 -15 -15 -15 -15
-9 -9 -9 -9 -9 -9 -9 -9 -10 -10 -10 -11 -12 -12 -12 -13 -14 -14 -14 -13 -14 -14 -14 -14 -14 -14 -14 -15 -16 -16 -16 -16 -16 -16 -16 -16 -16 -16
-9 -9 -9 -9 -9 -9 -10 -10 -11 -11 -12 -12 -13 -13 -13 -14 -14 -15 -14 -14 -15 -15 -15 -15 -15 -15 -15 -15 -16 -17 -17 -17 -17 -17 -17 -18 -18 -17
-10 -10 -10 -10 -10 -10 -10 -11 -11 -12 -13 -13 -14 -15 -15 -15 -15 -15 -15 -15 -15 -15 -15 -16 -16 -15 -16 -16 -17 -17 -17 -17 -18 -18 -18 -19 -19 -19

GFSNE_700_temp_204.txt.gz
Temp
-3 -3 -3 -3 -4 -4 -5 -4 -5 -4 -2 -2 -2 -2 -2 -2 -3 -4 -5 -5 -3 -3 -4 -4 -3 -3 -2 -3 -3 -2 -2 -2 -2 -1 -1 -1 -1 -1
-4 -4 -4 -4 -5 -5 -5 -5 -4 -5 -4 -3 -3 -3 -3 -3 -3 -3 -3 -6 -5 -4 -5 -5 -5 -5 -4 -4 -3 -3 -3 -3 -3 -2 -2 -2 -2 -1
-4 -4 -4 -4 -4 -5 -6 -6 -5 -5 -6 -4 -4 -4 -3 -4 -3 -3 -4 -4 -6 -5 -6 -6 -6 -7 -5 -5 -5 -4 -4 -4 -3 -3 -3 -2 -2 -2
-4 -5 -5 -5 -5 -6 -6 -6 -5 -4 -6 -5 -3 -4 -4 -4 -4 -4 -4 -5 -6 -6 -6 -6 -6 -7 -5 -6 -6 -6 -6 -4 -4 -4 -3 -3 -3 -3
-5 -5 -5 -5 -5 -6 -6 -6 -6 -6 -6 -5 -3 -4 -5 -4 -3 -4 -5 -5 -6 -5 -7 -6 -7 -6 -5 -7 -6 -6 -5 -5 -5 -4 -4 -4 -4 -4
-7 -7 -7 -7 -5 -5 -6 -7 -6 -5 -6 -5 -5 -5 -4 -4 -4 -3 -5 -6 -6 -6 -6 -6 -7 -7 -8 -8 -7 -6 -6 -6 -5 -5 -5 -5 -5 -4
-6 -6 -6 -7 -7 -6 -6 -6 -6 -6 -5 -5 -4 -4 -5 -4 -4 -4 -6 -6 -6 -6 -5 -7 -8 -7 -8 -8 -6 -6 -6 -6 -6 -6 -6 -6 -5 -5
-7 -7 -7 -6 -5 -5 -6 -5 -5 -4 -4 -5 -4 -2 -3 -4 -5 -5 -6 -6 -6 -6 -7 -8 -7 -8 -9 -8 -7 -6 -6 -6 -6 -7 -7 -6 -6 -5
-7 -6 -5 -5 -5 -4 -5 -5 -5 -5 -4 -4 -4 -4 -4 -4 -5 -5 -6 -6 -6 -6 -7 -7 -8 -9 -9 -8 -8 -7 -7 -8 -7 -7 -7 -7 -6 -6
-6 -6 -5 -5 -4 -4 -5 -6 -6 -6 -5 -4 -5 -4 -4 -5 -5 -5 -6 -6 -7 -7 -7 -7 -8 -9 -8 -8 -9 -8 -7 -7 -7 -8 -8 -7 -7 -7
-7 -7 -6 -5 -3 -4 -5 -5 -6 -5 -5 -5 -4 -5 -6 -6 -6 -6 -7 -7 -7 -7 -8 -8 -9 -10 -9 -9 -8 -8 -8 -8 -8 -8 -8 -8 -8 -8
-7 -7 -7 -6 -5 -5 -5 -5 -4 -5 -5 -5 -7 -7 -7 -6 -6 -7 -7 -7 -8 -8 -8 -9 -10 -9 -10 -9 -8 -9 -9 -9 -9 -9 -9 -9 -8 -8
-8 -8 -8 -8 -7 -7 -7 -6 -6 -6 -7 -7 -7 -7 -7 -7 -8 -8 -8 -8 -8 -8 -9 -10 -10 -10 -9 -9 -9 -9 -9 -9 -9 -9 -9 -9 -9 -9
-9 -9 -9 -8 -8 -8 -8 -7 -7 -7 -7 -8 -7 -7 -7 -8 -8 -9 -9 -9 -9 -10 -11 -11 -10 -9 -9 -9 -9 -10 -10 -10 -10 -10 -10 -10 -10 -10
-9 -9 -10 -9 -9 -8 -8 -8 -8 -9 -8 -8 -8 -8 -8 -8 -9 -9 -10 -9 -9 -10 -11 -11 -11 -10 -10 -10 -10 -10 -10 -10 -10 -10 -10 -10 -10 -10
-9 -9 -9 -9 -9 -9 -9 -9 -9 -9 -8 -9 -8 -8 -9 -9 -9 -10 -10 -10 -10 -10 -10 -9 -10 -10 -10 -10 -10 -10 -10 -10 -11 -11 -11 -11 -11 -11
-10 -9 -9 -9 -9 -9 -9 -9 -9 -9 -9 -9 -9 -9 -9 -9 -9 -10 -10 -10 -10 -10 -9 -9 -10 -10 -10 -11 -11 -11 -11 -11 -11 -11 -12 -12 -12 -12
-10 -10 -9 -9 -9 -9 -9 -9 -9 -9 -9 -9 -9 -9 -9 -9 -10 -11 -11 -10 -10 -10 -10 -10 -11 -11 -11 -11 -11 -12 -12 -12 -12 -12 -12 -13 -13 -13
-9 -9 -9 -9 -9 -9 -10 -10 -10 -10 -10 -10 -10 -10 -10 -10 -11 -12 -11 -10 -10 -10 -11 -11 -11 -11 -11 -12 -12 -12 -12 -12 -13 -13 -13 -14 -14 -14
-8 -9 -9 -9 -9 -10 -10 -10 -11 -11 -11 -11 -11 -12 -12 -12 -11 -11 -11 -11 -11 -11 -11 -12 -12 -12 -13 -13 -13 -13 -13 -14 -14 -14 -14 -14 -15 -15
-9 -9 -9 -9 -9 -9 -9 -9 -10 -10 -12 -13 -13 -13 -12 -11 -11 -11 -11 -11 -11 -12 -12 -13 -13 -13 -13 -14 -14 -14 -15 -15 -15 -15 -15 -16 -16 -16
-10 -10 -10 -10 -10 -10 -10 -10 -11 -11 -11 -11 -11 -12 -12 -13 -13 -13 -13 -13 -14 -14 -14 -15 -15 -15 -15 -14 -15 -15 -16 -16 -16 -16 -17 -17 -17 -17
-10 -10 -10 -10 -11 -11 -11 -11 -11 -11 -11 -11 -12 -12 -13 -13 -13 -13 -13 -14 -14 -14 -15 -15 -16 -15 -16 -16 -16 -16 -17 -17 -17 -18 -18 -19 -19 -19

GFSNE_700_temp_207.txt.gz
Temp
-3 -3 -4 -4 -4 -4 -5 -6 -5 -6 -5 -4 -3 -2 -4 -2 -2 -3 -2 -3 -3 -3 -6 -4 -3 -3 -3 -4 -4 -4 -3 -3 -2 -3 -2 -2 -1 -1
-4 -4 -4 -4 -5 -4 -5 -6 -6 -6 -6 -5 -4 -4 -3 -4 -4 -3 -3 -3 -3 -4 -6 -5 -6 -4 -5 -5 -3 -5 -3 -4 -3 -4 -3 -2 -2 -2
-4 -4 -4 -4 -5 -5 -5 -5 -7 -6 -6 -7 -5 -4 -4 -4 -5 -4 -4 -4 -3 -4 -5 -6 -6 -5 -5 -6 -5 -5 -5 -5 -5 -4 -3 -3 -3 -3
-3 -4 -4 -4 -5 -5 -6 -6 -7 -6 -6 -7 -5 -6 -4 -3 -5 -5 -4 -4 -5 -5 -5 -6 -6 -6 -8 -6 -6 -7 -7 -6 -6 -5 -5 -4 -4 -3
-4 -4 -5 -6 -6 -7 -7 -7 -7 -7 -7 -7 -7 -5 -5 -4 -6 -5 -5 -5 -5 -5 -6 -7 -6 -7 -7 -8 -7 -8 -8 -7 -7 -7 -5 -5 -5 -4
-5 -6 -6 -7 -7 -7 -7 -7 -7 -6 -6 -7 -7 -6 -5 -6 -6 -5 -5 -5 -6 -6 -7 -6 -7 -7 -8 -7 -9 -10 -8 -8 -8 -6 -6 -6 -5 -5
-6 -6 -7 -7 -7 -7 -7 -7 -7 -7 -7 -7 -7 -6 -6 -6 -5 -5 -5 -5 -6 -7 -7 -7 -7 -6 -8 -8 -9 -8 -9 -8 -7 -7 -6 -6 -6 -5
-7 -7 -7 -7 -7 -6 -6 -7 -7 -6 -7 -7 -5 -5 -5 -5 -5 -4 -5 -5 -6 -7 -8 -7 -7 -7 -7 -7 -8 -10 -9 -8 -7 -7 -7 -7 -7 -6
-7 -7 -8 -8 -7 -6 -6 -6 -6 -6 -6 -6 -5 -5 -5 -5 -5 -5 -5 -5 -5 -6 -7 -8 -8 -7 -8 -9 -10 -9 -10 -8 -7 -8 -7 -7 -7 -7
-8 -8 -7 -7 -6 -5 -5 -5 -5 -6 -6 -6 -6 -6 -5 -5 -5 -4 -5 -5 -6 -7 -7 -7 -7 -8 -8 -9 -10 -11 -10 -9 -9 -8 -8 -8 -8 -8
-8 -8 -7 -7 -6 -5 -5 -4 -5 -6 -6 -6 -6 -6 -5 -5 -5 -5 -5 -6 -6 -7 -8 -8 -7 -8 -8 -10 -10 -11 -10 -11 -10 -9 -8 -9 -8 -8
-8 -7 -7 -6 -6 -5 -5 -5 -6 -5 -5 -5 -6 -5 -5 -5 -6 -7 -7 -7 -7 -8 -8 -8 -7 -8 -9 -10 -11 -11 -10 -10 -9 -9 -9 -9 -9 -9
-8 -8 -7 -7 -7 -6 -6 -6 -5 -5 -6 -6 -6 -6 -6 -7 -7 -7 -8 -7 -7 -7 -7 -7 -8 -9 -10 -10 -10 -10 -11 -10 -9 -9 -9 -9 -9 -9
-8 -8 -8 -8 -8 -8 -7 -7 -7 -7 -6 -7 -7 -7 -7 -7 -8 -8 -8 -8 -8 -8 -8 -8 -9 -10 -10 -12 -11 -11 -10 -10 -10 -10 -10 -10 -10 -10
-9 -9 -9 -8 -8 -8 -8 -8 -8 -8 -7 -7 -7 -8 -7 -7 -8 -9 -9 -9 -9 -9 -10 -10 -10 -10 -12 -13 -11 -10 -10 -10 -10 -10 -10 -10 -10 -10
-9 -9 -9 -8 -8 -8 -8 -8 -9 -8 -8 -8 -8 -7 -7 -8 -9 -9 -9 -10 -10 -10 -10 -10 -11 -12 -12 -11 -11 -11 -10 -10 -10 -11 -11 -11 -10 -10
-9 -9 -9 -9 -9 -9 -9 -8 -8 -8 -8 -8 -8 -8 -9 -9 -9 -9 -10 -10 -10 -11 -10 -11 -12 -12 -11 -11 -11 -11 -11 -11 -11 -11 -11 -11 -11 -11
-9 -9 -9 -9 -9 -9 -9 -9 -9 -9 -9 -9 -9 -9 -9 -9 -10 -10 -10 -10 -10 -10 -10 -11 -12 -12 -12 -11 -11 -11 -11 -11 -11 -11 -12 -12 -12 -12
-8 -8 -9 -9 -9 -10 -10 -10 -9 -10 -10 -10 -10 -10 -10 -10 -10 -11 -11 -11 -11 -11 -11 -12 -13 -12 -12 -12 -12 -11 -11 -12 -12 -12 -12 -12 -12 -13
-8 -8 -9 -9 -9 -10 -10 -11 -10 -10 -10 -10 -10 -10 -11 -11 -11 -11 -12 -12 -13 -13 -13 -13 -13 -13 -13 -12 -12 -12 -12 -13 -13 -13 -13 -13 -14 -14
-9 -9 -9 -10 -10 -10 -10 -10 -11 -11 -11 -11 -11 -11 -11 -12 -12 -12 -13 -13 -13 -13 -13 -12 -12 -13 -13 -13 -13 -13 -14 -14 -14 -14 -14 -15 -15 -15
-9 -10 -10 -10 -10 -10 -11 -11 -11 -11 -11 -11 -11 -12 -12 -13 -13 -14 -14 -13 -13 -13 -13 -13 -13 -14 -14 -15 -15 -15 -15 -15 -15 -15 -16 -16 -16 -16
-10 -10 -10 -10 -10 -11 -11 -11 -11 -12 -12 -12 -13 -13 -13 -14 -14 -14 -14 -14 -13 -13 -13 -14 -14 -14 -14 -15 -15 -15 -16 -16 -16 -16 -17 -17 -18 -18

GFSNE_700_temp_210.txt.gz
Temp
-2 -2 -2 -2 -3 -4 -4 -5 -5 -4 -4 -4 -5 -4 -4 -4 -3 -4 -4 -3 -3 -3 -2 -2 -3 -4 -5 -3 -3 -3 -3 -3 -3 -4 -3 -2 -2 -2
-1 -1 -2 -3 -3 -4 -5 -5 -5 -5 -5 -5 -5 -5 -4 -5 -4 -5 -4 -4 -4 -3 -3 -3 -3 -4 -5 -6 -5 -4 -4 -5 -4 -5 -3 -2 -2 -3
-1 -1 -2 -2 -3 -3 -4 -5 -6 -7 -6 -5 -6 -6 -6 -5 -5 -5 -6 -5 -4 -4 -4 -3 -4 -4 -4 -7 -5 -6 -6 -7 -5 -5 -4 -3 -3 -3
-2 -2 -3 -3 -4 -4 -5 -5 -7 -8 -8 -6 -6 -6 -7 -5 -6 -6 -6 -6 -6 -6 -6 -5 -4 -4 -5 -7 -7 -8 -8 -6 -6 -5 -5 -5 -4 -4
-3 -4 -4 -5 -5 -6 -7 -7 -7 -7 -8 -8 -7 -7 -5 -5 -6 -5 -6 -6 -6 -6 -6 -6 -5 -5 -6 -7 -7 -8 -9 -7 -7 -7 -7 -7 -5 -5
-4 -4 -5 -6 -6 -7 -7 -7 -8 -8 -8 -8 -8 -7 -6 -5 -6 -7 -6 -6 -6 -5 -6 -6 -6 -7 -7 -8 -8 -8 -10 -10 -8 -9 -9 -7 -7 -6
-4 -5 -6 -7 -7 -7 -7 -7 -7 -7 -8 -8 -8 -8 -6 -6 -6 -6 -6 -6 -6 -6 -7 -7 -8 -8 -8 -8 -8 -8 -9 -9 -10 -10 -9 -8 -7 -6
-5 -6 -7 -7 -7 -7 -7 -8 -8 -7 -7 -8 -8 -7 -6 -6 -6 -6 -6 -6 -7 -6 -6 -8 -8 -8 -8 -7 -9 -8 -9 -9 -11 -9 -10 -9 -7 -7
-6 -6 -6 -7 -8 -7 -7 -7 -6 -6 -7 -7 -8 -7 -7 -6 -6 -6 -6 -7 -6 -5 -6 -8 -8 -9 -8 -9 -9 -8 -9 -10 -9 -10 -11 -8 -8 -8
-7 -7 -7 -8 -7 -7 -6 -5 -5 -5 -5 -7 -7 -6 -6 -6 -6 -6 -6 -6 -6 -6 -6 -8 -9 -9 -9 -9 -9 -9 -9 -10 -9 -11 -10 -9 -8 -8
-8 -8 -8 -8 -7 -6 -6 -5 -5 -5 -5 -6 -6 -5 -5 -7 -7 -7 -7 -6 -6 -6 -7 -8 -8 -9 -9 -9 -9 -10 -10 -10 -11 -12 -10 -10 -9 -9
-8 -8 -8 -7 -7 -6 -5 -3 -5 -5 -5 -6 -5 -6 -5 -7 -6 -6 -6 -6 -5 -6 -6 -8 -8 -8 -9 -9 -10 -10 -10 -11 -13 -12 -12 -10 -10 -10
-8 -8 -8 -7 -7 -7 -5 -3 -6 -6 -6 -5 -6 -5 -5 -5 -6 -6 -6 -6 -7 -7 -7 -8 -8 -9 -9 -9 -10 -10 -10 -11 -12 -12 -11 -12 -11 -10
-8 -8 -8 -8 -7 -7 -6 -6 -6 -7 -6 -6 -6 -6 -6 -6 -7 -7 -7 -8 -9 -9 -9 -8 -9 -9 -8 -9 -9 -10 -11 -12 -11 -12 -12 -11 -10 -10
-8 -8 -8 -8 -8 -8 -8 -7 -7 -7 -7 -7 -7 -7 -7 -7 -7 -8 -9 -10 -11 -11 -11 -10 -9 -9 -9 -10 -10 -11 -11 -11 -11 -12 -11 -11 -11 -11
-8 -8 -8 -8 -8 -8 -8 -8 -8 -8 -8 -8 -7 -8 -8 -8 -9 -9 -9 -9 -9 -11 -11 -11 -10 -11 -11 -12 -12 -11 -12 -12 -12 -12 -11 -11 -11 -11
-8 -8 -8 -8 -8 -8 -8 -8 -8 -8 -8 -8 -8 -8 -8 -8 -9 -9 -9 -9 -10 -10 -11 -11 -12 -12 -12 -12 -12 -13 -12 -13 -13 -12 -12 -11 -11 -11
-8 -8 -8 -8 -8 -9 -9 -9 -9 -9 -9 -9 -8 -8 -8 -9 -9 -9 -10 -11 -11 -11 -11 -11 -12 -12 -12 -13 -13 -13 -12 -12 -13 -13 -14 -13 -13 -12
-8 -8 -8 -9 -9 -9 -9 -9 -9 -9 -9 -9 -9 -9 -9 -9 -10 -10 -10 -11 -11 -11 -11 -11 -12 -12 -12 -11 -12 -12 -13 -14 -14 -14 -14 -14 -13 -13
-8 -8 -8 -8 -9 -9 -9 -10 -10 -10 -10 -10 -10 -10 -10 -10 -10 -10 -11 -11 -12 -12 -11 -11 -12 -13 -13 -14 -14 -14 -14 -14 -14 -14 -14 -14 -13 -14
-9 -9 -9 -9 -9 -10 -10 -10 -10 -11 -11 -11 -11 -11 -11 -11 -11 -11 -12 -12 -12 -12 -12 -12 -12 -13 -13 -14 -14 -14 -14 -14 -14 -14 -14 -14 -15 -15
-9 -9 -9 -9 -10 -10 -10 -11 -11 -11 -11 -12 -12 -12 -12 -12 -12 -12 -12 -12 -12 -13 -12 -13 -14 -14 -14 -14 -14 -14 -14 -14 -15 -15 -15 -16 -16 -16
-9 -9 -10 -10 -10 -10 -10 -11 -11 -12 -12 -12 -12 -12 -12 -13 -13 -13 -13 -13 -14 -14 -14 -15 -14 -14 -14 -15 -15 -15 -15 -15 -16 -16 -16 -16 -16 -17

GFSNE_700_temp_216.txt.gz
Temp
2 2 1 0 -0 -1 -1 -2 -2 -0 1 0 -1 -1 -3 -3 -4 -4 -4 -4 -4 -4 -4 -4 -3 -3 -3 -3 -3 -3 -4 -4 -5 -3 -5 -3 -3 -2
1 1 1 0 -0 -1 -1 -2 -3 -4 -2 -2 -2 -2 -4 -3 -5 -5 -5 -4 -4 -4 -4 -4 -4 -3 -3 -3 -4 -3 -4 -5 -5 -5 -4 -4 -5 -3
1 1 0 -0 -0 -1 -2 -2 -3 -4 -4 -2 -5 -4 -6 -4 -4 -6 -5 -4 -4 -5 -4 -4 -4 -4 -4 -3 -4 -4 -4 -4 -4 -7 -7 -6 -5 -4
0 0 -0 -1 -1 -2 -2 -3 -4 -4 -5 -4 -5 -5 -7 -6 -5 -7 -7 -5 -5 -4 -5 -4 -4 -4 -4 -4 -4 -4 -4 -5 -6 -7 -8 -6 -5 -6
-0 -1 -1 -2 -2 -3 -3 -4 -4 -5 -6 -5 -5 -6 -7 -6 -7 -7 -7 -6 -6 -6 -6 -5 -5 -4 -5 -5 -4 -4 -4 -5 -7 -7 -7 -7 -5 -6
-1 -2 -2 -3 -3 -4 -5 -5 -5 -5 -6 -6 -6 -6 -7 -7 -7 -7 -7 -7 -7 -7 -7 -6 -5 -5 -5 -5 -4 -3 -4 -5 -5 -6 -6 -8 -9 -8
-2 -2 -3 -3 -4 -5 -5 -4 -5 -5 -5 -6 -6 -7 -7 -7 -7 -8 -7 -7 -8 -7 -7 -6 -5 -5 -7 -6 -5 -5 -5 -5 -5 -6 -7 -8 -10 -9
-3 -3 -4 -4 -4 -5 -6 -6 -6 -6 -6 -6 -6 -6 -7 -7 -7 -7 -7 -7 -8 -7 -7 -7 -6 -6 -6 -6 -6 -6 -5 -5 -6 -7 -7 -8 -9 -9
-3 -3 -4 -5 -5 -6 -5 -5 -5 -6 -6 -5 -5 -6 -6 -7 -7 -8 -8 -8 -7 -7 -7 -7 -7 -7 -6 -6 -5 -6 -6 -7 -7 -7 -8 -8 -9 -9
-3 -5 -5 -5 -7 -6 -6 -5 -5 -5 -4 -5 -5 -6 -6 -7 -7 -8 -8 -7 -7 -7 -7 -7 -7 -6 -6 -6 -7 -7 -7 -7 -7 -8 -8 -9 -9 -10
-5 -5 -5 -6 -7 -7 -6 -6 -6 -6 -5 -6 -6 -6 -7 -7 -7 -7 -7 -7 -7 -7 -7 -7 -7 -6 -7 -7 -8 -8 -8 -8 -8 -8 -9 -9 -9 -10
-5 -5 -6 -7 -7 -7 -7 -7 -6 -6 -5 -6 -5 -6 -7 -7 -8 -7 -8 -7 -7 -7 -7 -7 -7 -7 -8 -8 -8 -8 -9 -9 -9 -9 -9 -9 -10 -10
-5 -5 -6 -7 -7 -7 -7 -7 -6 -6 -6 -7 -7 -7 -8 -7 -7 -7 -7 -8 -8 -7 -7 -7 -7 -7 -8 -8 -9 -9 -9 -9 -9 -9 -10 -10 -11 -11
-5 -6 -6 -6 -6 -7 -7 -7 -7 -6 -7 -7 -7 -7 -6 -6 -7 -8 -8 -8 -8 -8 -8 -8 -9 -8 -8 -8 -8 -9 -9 -9 -10 -10 -10 -11 -11 -11
-5 -6 -6 -6 -6 -7 -7 -7 -7 -7 -7 -7 -7 -7 -7 -8 -8 -7 -7 -7 -8 -9 -9 -9 -10 -10 -10 -9 -10 -9 -9 -9 -10 -10 -11 -11 -11 -11
-6 -6 -6 -6 -6 -6 -7 -7 -7 -7 -7 -7 -8 -7 -7 -7 -7 -7 -8 -8 -8 -9 -10 -11 -11 -11 -12 -11 -11 -10 -10 -10 -10 -11 -11 -12 -12 -12
-6 -6 -6 -6 -7 -7 -7 -8 -8 -8 -7 -8 -8 -8 -8 -9 -9 -10 -10 -10 -10 -11 -11 -12 -12 -12 -13 -14 -13 -12 -12 -11 -11 -11 -11 -12 -12 -13
-6 -6 -7 -7 -7 -7 -8 -8 -8 -8 -8 -8 -8 -9 -9 -9 -10 -10 -10 -11 -11 -11 -12 -12 -11 -11 -12 -13 -13 -13 -12 -12 -12 -12 -13 -13 -13 -13
-7 -7 -7 -7 -8 -8 -8 -9 -9 -9 -9 -9 -9 -9 -9 -10 -10 -11 -11 -11 -11 -11 -12 -12 -12 -12 -12 -12 -12 -13 -13 -13 -13 -13 -13 -13 -13 -13
-7 -7 -7 -8 -8 -9 -9 -9 -9 -10 -10 -10 -10 -10 -10 -10 -11 -11 -11 -11 -11 -12 -12 -12 -12 -13 -13 -13 -13 -13 -14 -14 -14 -14 -13 -13 -14 -14
-7 -8 -8 -8 -9 -9 -9 -10 -10 -10 -11 -11 -11 -11 -11 -11 -11 -11 -11 -11 -12 -12 -12 -12 -13 -14 -14 -14 -14 -13 -14 -14 -14 -14 -14 -14 -13 -14
-8 -8 -8 -9 -9 -9 -10 -10 -11 -11 -12 -12 -12 -12 -12 -12 -12 -12 -12 -12 -12 -13 -13 -13 -14 -14 -14 -14 -14 -14 -14 -14 -14 -14 -14 -14 -15 -15
-8 -9 -9 -9 -9 -10 -10 -11 -11 -12 -12 -12 -13 -13 -13 -13 -13 -13 -13 -14 -14 -14 -14 -14 -14 -14 -14 -14 -14 -14 -14 -15 -15 -15 -15 -15 -15 -15

GFSNE_700_temp_219.txt.gz
Temp
3 3 3 2 2 1 1 1 1 2 2 2 1 0 -0 -1 -2 -3 -2 -3 -3 -4 -4 -3 -4 -4 -3 -3 -3 -2 -3 -3 -3 -4 -4 -5 -5 -6
2 3 2 2 1 1 1 0 -0 -0 1 0 -0 -1 -2 -3 -3 -4 -4 -4 -4 -4 -5 -5 -4 -4 -4 -4 -3 -3 -3 -3 -3 -4 -5 -5 -5 -5
2 2 1 1 1 1 0 -0 -0 -1 -0 0 -1 -2 -3 -4 -4 -4 -4 -5 -5 -5 -6 -5 -5 -4 -4 -4 -4 -4 -4 -4 -4 -3 -4 -6 -6 -5
1 1 1 1 0 0 -0 -1 -1 -2 -3 -1 -2 -3 -3 -4 -4 -5 -5 -5 -5 -5 -7 -6 -5 -4 -4 -4 -4 -4 -4 -4 -3 -4 -5 -5 -6 -6
1 1 0 0 -0 -0 -1 -2 -3 -4 -4 -4 -3 -4 -5 -6 -6 -5 -6 -5 -6 -6 -6 -6 -6 -5 -4 -4 -4 -5 -4 -4 -4 -4 -4 -5 -6 -7
0 0 -0 -1 -1 -1 -2 -3 -3 -4 -4 -4 -3 -4 -5 -6 -7 -6 -6 -6 -6 -7 -6 -7 -7 -6 -5 -5 -5 -6 -5 -5 -5 -4 -4 -5 -5 -7
-1 -1 -1 -1 -2 -3 -3 -4 -4 -5 -4 -4 -4 -4 -4 -5 -6 -6 -7 -7 -7 -7 -7 -7 -7 -6 -6 -6 -6 -5 -5 -5 -5 -5 -5 -5 -6 -7
-2 -2 -2 -2 -2 -3 -4 -5 -5 -4 -4 -5 -4 -4 -5 -7 -7 -7 -7 -7 -7 -8 -8 -7 -7 -6 -6 -5 -5 -5 -5 -5 -5 -5 -5 -5 -7 -7
-2 -2 -2 -2 -2 -3 -4 -4 -5 -5 -5 -5 -4 -4 -5 -6 -7 -7 -7 -7 -8 -8 -8 -7 -7 -7 -6 -5 -4 -6 -6 -6 -5 -6 -6 -7 -8 -8
-3 -2 -2 -2 -3 -4 -5 -5 -5 -5 -6 -6 -6 -7 -6 -7 -7 -7 -7 -8 -8 -8 -7 -7 -7 -6 -6 -6 -6 -6 -7 -7 -6 -6 -7 -8 -8 -8
-3 -3 -3 -3 -4 -5 -5 -5 -6 -6 -7 -6 -5 -6 -6 -7 -7 -7 -8 -8 -8 -7 -8 -8 -7 -7 -7 -7 -7 -7 -7 -6 -7 -8 -8 -9 -8 -8
-3 -4 -4 -4 -5 -5 -5 -6 -6 -6 -6 -6 -6 -6 -7 -7 -7 -8 -8 -8 -7 -7 -7 -8 -7 -7 -7 -7 -8 -9 -8 -8 -8 -9 -9 -9 -9 -9
-4 -4 -4 -4 -5 -5 -5 -6 -6 -6 -7 -7 -7 -7 -8 -8 -7 -7 -7 -7 -7 -7 -7 -8 -7 -7 -7 -7 -8 -9 -9 -9 -9 -9 -9 -10 -10 -10
-4 -4 -4 -5 -5 -5 -5 -6 -7 -6 -6 -7 -7 -7 -7 -7 -8 -8 -8 -7 -7 -7 -8 -9 -8 -8 -8 -8 -8 -9 -9 -9 -9 -10 -10 -10 -10 -10
-5 -5 -5 -5 -5 -5 -6 -7 -7 -7 -7 -7 -7 -7 -7 -7 -7 -7 -7 -8 -8 -8 -8 -8 -9 -8 -9 -9 -8 -8 -9 -9 -10 -10 -10 -10 -10 -10
-5 -5 -6 -5 -5 -6 -6 -7 -7 -7 -7 -7 -7 -7 -7 -7 -7 -8 -8 -7 -7 -7 -7 -7 -8 -9 -11 -10 -10 -10 -10 -9 -10 -10 -10 -11 -11 -11
-6 -6 -6 -6 -7 -7 -7 -7 -7 -7 -7 -7 -7 -8 -8 -8 -8 -8 -8 -8 -8 -8 -8 -9 -9 -10 -11 -12 -12 -12 -12 -11 -11 -10 -10 -11 -11 -12
-6 -7 -6 -7 -7 -7 -7 -7 -7 -8 -8 -8 -8 -8 -9 -9 -9 -9 -9 -9 -10 -10 -10 -10 -10 -11 -11 -12 -13 -14 -13 -12 -12 -12 -12 -12 -13 -13
-7 -7 -7 -8 -8 -8 -8 -8 -8 -8 -8 -8 -9 -9 -9 -10 -10 -10 -10 -11 -11 -11 -11 -12 -12 -12 -12 -12 -12 -12 -13 -13 -13 -13 -13 -13 -14 -14
-7 -7 -8 -8 -8 -8 -8 -8 -9 -9 -9 -9 -9 -10 -10 -11 -11 -11 -11 -11 -11 -12 -12 -11 -12 -12 -13 -13 -12 -13 -13 -14 -14 -14 -14 -14 -14 -14
-7 -8 -8 -8 -9 -9 -9 -9 -9 -10 -10 -10 -10 -11 -11 -11 -11 -12 -12 -12 -12 -12 -12 -12 -13 -13 -13 -14 -14 -13 -13 -14 -15 -15 -14 -14 -14 -14
-8 -8 -8 -9 -9 -9 -9 -9 -10 -10 -10 -11 -11 -11 -12 -12 -12 -12 -12 -12 -13 -13 -13 -13 -13 -14 -14 -14 -14 -14 -13 -14 -14 -14 -15 -15 -15 -15
-9 -9 -9 -9 -9 -9 -9 -10 -10 -10 -11 -11 -12 -12 -12 -12 -12 -13 -13 -13 -14 -14 -14 -14 -14 -15 -15 -15 -15 -15 -15 -15 -15 -15 -15 -15 -15 -16

GFSNE_700_temp_222.txt.gz
Temp
2 2 2 2 2 2 2 2 2 3 3 2 2 1 1 1 0 -0 -1 -2 -2 -2 -3 -3 -4 -5 -4 -4 -4 -3 -4 -3 -3 -3 -3 -4 -4 -5
1 2 2 2 2 2 2 1 1 1 2 1 1 1 1 -0 -1 -2 -2 -2 -2 -3 -4 -4 -4 -5 -5 -5 -5 -3 -3 -4 -3 -3 -2 -4 -4 -4
1 1 1 2 1 1 1 1 1 1 1 2 1 1 0 -1 -2 -3 -3 -3 -3 -3 -3 -4 -5 -7 -6 -5 -4 -3 -3 -2 -3 -3 -3 -3 -4 -4
1 1 1 1 1 1 0 0 1 0 1 2 2 0 -2 -2 -3 -3 -4 -4 -4 -4 -4 -4 -5 -7 -6 -6 -5 -4 -4 -3 -3 -4 -4 -4 -4 -5
0 0 1 0 0 0 0 0 -0 -0 0 1 0 -2 -2 -3 -3 -4 -4 -4 -4 -4 -4 -5 -5 -7 -6 -7 -5 -4 -4 -4 -4 -4 -4 -4 -4 -5
-0 -0 0 -0 -0 -0 -1 -1 -1 -1 -1 -1 -2 -2 -3 -3 -4 -3 -4 -4 -5 -6 -5 -5 -6 -6 -6 -7 -6 -5 -4 -4 -4 -5 -4 -4 -5 -5
-1 -0 -0 -1 -1 -1 -1 -1 -1 -2 -2 -2 -2 -2 -3 -3 -4 -4 -4 -4 -6 -6 -6 -6 -6 -6 -7 -7 -6 -6 -4 -4 -4 -5 -5 -5 -5 -5
-1 -1 -1 -2 -2 -2 -2 -2 -2 -2 -2 -2 -2 -3 -3 -4 -5 -6 -5 -6 -6 -6 -6 -6 -7 -7 -7 -7 -6 -6 -5 -4 -4 -5 -5 -5 -5 -5
-1 -2 -2 -2 -2 -2 -3 -3 -3 -4 -4 -3 -3 -4 -3 -5 -7 -6 -6 -7 -7 -7 -7 -7 -6 -7 -7 -7 -7 -7 -6 -6 -6 -6 -6 -6 -6 -6
-2 -2 -3 -3 -3 -3 -3 -3 -4 -4 -3 -4 -4 -4 -4 -5 -6 -6 -7 -7 -7 -7 -7 -7 -7 -7 -7 -7 -7 -7 -6 -5 -5 -5 -5 -6 -7 -7
-3 -3 -3 -3 -3 -3 -3 -4 -4 -5 -5 -5 -5 -4 -5 -6 -7 -7 -7 -8 -7 -7 -7 -6 -7 -7 -6 -6 -6 -7 -5 -6 -5 -6 -6 -7 -7 -8
-3 -4 -4 -4 -3 -3 -3 -4 -4 -5 -6 -6 -5 -6 -6 -7 -7 -8 -7 -8 -8 -7 -7 -7 -7 -8 -6 -6 -6 -8 -7 -7 -7 -7 -7 -8 -8 -8
-4 -4 -4 -4 -4 -4 -4 -4 -4 -5 -6 -6 -6 -6 -6 -6 -7 -7 -7 -7 -7 -7 -8 -8 -8 -8 -8 -7 -8 -7 -8 -8 -8 -8 -8 -8 -9 -9
-4 -4 -4 -4 -4 -4 -4 -4 -5 -5 -5 -6 -6 -7 -7 -7 -7 -7 -7 -7 -7 -7 -8 -8 -9 -8 -8 -8 -8 -8 -8 -9 -9 -9 -9 -9 -9 -9
-5 -5 -4 -4 -5 -4 -4 -5 -5 -6 -6 -5 -6 -6 -7 -7 -7 -8 -7 -7 -8 -7 -7 -7 -8 -9 -9 -8 -9 -8 -8 -9 -9 -9 -9 -9 -10 -10
-5 -5 -5 -5 -5 -5 -5 -6 -6 -6 -6 -6 -6 -7 -7 -7 -7 -8 -8 -8 -8 -8 -7 -7 -7 -8 -8 -8 -9 -9 -9 -9 -9 -10 -10 -10 -10 -10
-5 -5 -5 -5 -6 -6 -6 -7 -6 -7 -7 -7 -7 -7 -7 -7 -7 -8 -8 -8 -8 -8 -8 -7 -8 -8 -8 -10 -10 -10 -9 -10 -10 -10 -10 -11 -11 -11
-6 -6 -6 -6 -6 -7 -7 -7 -7 -7 -7 -7 -8 -8 -8 -8 -8 -9 -9 -10 -10 -9 -9 -9 -9 -9 -9 -11 -12 -12 -11 -12 -11 -11 -12 -12 -12 -12
-6 -6 -6 -7 -7 -7 -7 -7 -7 -8 -8 -8 -8 -9 -9 -9 -9 -9 -10 -11 -11 -11 -11 -11 -11 -11 -11 -11 -12 -13 -13 -13 -13 -13 -13 -13 -13 -14
-7 -7 -7 -7 -8 -8 -8 -8 -8 -9 -9 -9 -9 -10 -10 -10 -10 -10 -11 -11 -11 -12 -12 -12 -12 -12 -12 -13 -12 -13 -13 -14 -14 -14 -14 -14 -15 -15
-7 -7 -8 -8 -8 -8 -8 -8 -9 -9 -9 -9 -10 -11 -11 -11 -11 -11 -11 -12 -12 -12 -13 -13 -13 -13 -13 -14 -14 -14 -14 -14 -14 -15 -15 -15 -15 -15
-8 -8 -8 -9 -9 -9 -9 -9 -9 -9 -9 -10 -10 -11 -12 -12 -12 -12 -12 -12 -13 -13 -14 -14 -14 -14 -14 -14 -14 -14 -14 -14 -15 -15 -16 -16 -16 -15
-9 -9 -9 -9 -9 -9 -9 -10 -10 -10 -10 -10 -11 -12 -12 -13 -13 -13 -13 -13 -13 -14 -14 -14 -14 -14 -14 -15 -15 -15 -15 -15 -15 -15 -15 -16 -16 -16